Time,TemperatureF,DewpointF,PressureIn,WindDirection,WindDirectionDegrees,WindSpeedMPH,WindSpeedGustMPH,Humidity,HourlyPrecipIn,Conditions,Clouds,dailyrainin,SoftwareType,DateUTC
2013-10-03 00:04:00,73.2,0.0,29.33,ESE,112,1.0,3.0,81,0.00,,,0.00,Weather View 32 v70,2013-10-03 05:04:00,
2013-10-03 00:09:00,73.2,0.0,29.33,ESE,112,1.0,3.0,81,0.00,,,0.00,Weather View 32 v70,2013-10-03 05:09:00,
2013-10-03 00:12:00,73.2,0.0,29.33,ESE,112,1.0,3.0,81,0.00,,,0.00,Weather View 32 v70,2013-10-03 05:12:00,
2013-10-03 00:19:00,73.4,0.0,29.32,SSE,158,2.0,2.0,81,0.00,,,0.00,Weather View 32 v70,2013-10-03 05:19:00,
2013-10-03 00:24:00,73.2,0.0,29.32,SSW,202,1.0,2.0,81,0.00,,,0.00,Weather View 32 v70,2013-10-03 05:24:00,
2013-10-03 00:34:00,73.6,0.0,29.31,SSE,158,0.0,2.0,81,0.00,,,0.00,Weather View 32 v70,2013-10-03 05:34:00,
2013-10-03 00:39:00,73.4,0.0,29.31,South,180,0.0,2.0,81,0.00,,,0.00,Weather View 32 v70,2013-10-03 05:39:00,
2013-10-03 00:49:00,73.6,0.0,29.31,ESE,112,0.0,2.0,81,0.00,,,0.00,Weather View 32 v70,2013-10-03 05:49:00,
2013-10-03 00:54:00,73.2,0.0,29.31,East,90,0.0,2.0,81,0.00,,,0.00,Weather View 32 v70,2013-10-03 05:54:00,
2013-10-03 00:59:00,73.2,0.0,29.31,ENE,68,1.0,2.0,81,0.00,,,0.00,Weather View 32 v70,2013-10-03 05:59:00,
2013-10-03 01:04:00,73.2,0.0,29.31,NNE,22,0.0,2.0,81,0.00,,,0.00,Weather View 32 v70,2013-10-03 06:04:00,
2013-10-03 01:13:00,73.2,0.0,29.31,ENE,68,0.0,2.0,81,0.00,,,0.00,Weather View 32 v70,2013-10-03 06:13:00,
2013-10-03 01:19:00,73.0,0.0,29.31,ENE,68,1.0,2.0,81,0.00,,,0.00,Weather View 32 v70,2013-10-03 06:19:00,
2013-10-03 01:29:00,73.2,0.0,29.31,SE,135,1.0,1.0,81,0.00,,,0.00,Weather View 32 v70,2013-10-03 06:29:00,
2013-10-03 01:34:00,73.2,0.0,29.31,SE,135,1.0,1.0,81,0.00,,,0.00,Weather View 32 v70,2013-10-03 06:34:00,
2013-10-03 01:39:00,73.0,0.0,29.31,SE,135,1.0,1.0,81,0.00,,,0.00,Weather View 32 v70,2013-10-03 06:39:00,
2013-10-03 01:49:00,73.0,0.0,29.31,North,0,0.0,1.0,82,0.00,,,0.00,Weather View 32 v70,2013-10-03 06:49:00,
2013-10-03 01:54:00,72.9,0.0,29.32,SSE,158,1.0,1.0,82,0.00,,,0.00,Weather View 32 v70,2013-10-03 06:54:00,
2013-10-03 01:59:00,72.7,0.0,29.32,ENE,68,1.0,1.0,82,0.00,,,0.00,Weather View 32 v70,2013-10-03 06:59:00,
2013-10-03 02:09:00,72.7,0.0,29.32,ESE,112,1.0,1.0,82,0.00,,,0.00,Weather View 32 v70,2013-10-03 07:09:00,
2013-10-03 02:14:00,72.7,0.0,29.31,SE,135,2.0,2.0,82,0.00,,,0.00,Weather View 32 v70,2013-10-03 07:14:00,
2013-10-03 02:24:00,72.9,0.0,29.31,ESE,112,2.0,2.0,82,0.00,,,0.00,Weather View 32 v70,2013-10-03 07:24:00,
2013-10-03 02:29:00,72.9,0.0,29.31,ENE,68,2.0,2.0,82,0.00,,,0.00,Weather View 32 v70,2013-10-03 07:29:00,
2013-10-03 02:34:00,72.9,0.0,29.31,SE,135,1.0,2.0,82,0.00,,,0.00,Weather View 32 v70,2013-10-03 07:34:00,
2013-10-03 02:44:00,72.9,0.0,29.31,SE,135,1.0,2.0,82,0.00,,,0.00,Weather View 32 v70,2013-10-03 07:44:00,
2013-10-03 02:49:00,72.7,0.0,29.31,ESE,112,1.0,2.0,82,0.00,,,0.00,Weather View 32 v70,2013-10-03 07:49:00,
2013-10-03 02:59:00,72.9,0.0,29.30,SE,135,1.0,2.0,82,0.00,,,0.00,Weather View 32 v70,2013-10-03 07:59:00,
2013-10-03 03:09:00,72.7,0.0,29.30,South,180,1.0,2.0,81,0.00,,,0.00,Weather View 32 v70,2013-10-03 08:09:00,
2013-10-03 03:19:00,72.9,0.0,29.30,East,90,1.0,2.0,80,0.00,,,0.00,Weather View 32 v70,2013-10-03 08:19:00,
2013-10-03 03:29:00,72.7,0.0,29.30,NE,45,1.0,2.0,80,0.00,,,0.00,Weather View 32 v70,2013-10-03 08:29:00,
2013-10-03 03:34:00,72.7,0.0,29.31,ENE,68,1.0,1.0,80,0.00,,,0.00,Weather View 32 v70,2013-10-03 08:34:00,
2013-10-03 03:44:00,72.9,0.0,29.31,East,90,0.0,1.0,80,0.00,,,0.00,Weather View 32 v70,2013-10-03 08:44:00,
2013-10-03 03:49:00,72.9,0.0,29.31,NNE,22,0.0,1.0,80,0.00,,,0.00,Weather View 32 v70,2013-10-03 08:49:00,
2013-10-03 03:54:00,72.9,0.0,29.31,NE,45,0.0,1.0,80,0.00,,,0.00,Weather View 32 v70,2013-10-03 08:54:00,
2013-10-03 04:04:00,72.9,0.0,29.31,ENE,68,0.0,1.0,80,0.00,,,0.00,Weather View 32 v70,2013-10-03 09:04:00,
2013-10-03 04:09:00,72.9,0.0,29.31,ESE,112,0.0,1.0,79,0.00,,,0.00,Weather View 32 v70,2013-10-03 09:09:00,
2013-10-03 04:15:00,72.9,0.0,29.31,ESE,112,0.0,1.0,79,0.00,,,0.00,Weather View 32 v70,2013-10-03 09:15:00,
2013-10-03 04:24:00,72.7,0.0,29.31,East,90,0.0,1.0,79,0.00,,,0.00,Weather View 32 v70,2013-10-03 09:24:00,
2013-10-03 04:34:00,72.9,0.0,29.31,East,90,0.0,1.0,78,0.00,,,0.00,Weather View 32 v70,2013-10-03 09:34:00,
2013-10-03 04:39:00,72.9,0.0,29.31,NNW,338,0.0,1.0,78,0.00,,,0.00,Weather View 32 v70,2013-10-03 09:39:00,
2013-10-03 04:49:00,72.7,0.0,29.31,SSE,158,0.0,1.0,78,0.00,,,0.00,Weather View 32 v70,2013-10-03 09:49:00,
2013-10-03 04:59:00,72.9,0.0,29.30,ESE,112,0.0,1.0,78,0.00,,,0.00,Weather View 32 v70,2013-10-03 09:59:00,
2013-10-03 05:09:00,72.9,0.0,29.30,SE,135,0.0,1.0,78,0.00,,,0.00,Weather View 32 v70,2013-10-03 10:09:00,
2013-10-03 05:15:00,72.5,0.0,29.31,SE,135,0.0,1.0,78,0.00,,,0.00,Weather View 32 v70,2013-10-03 10:15:00,
2013-10-03 05:24:00,72.5,0.0,29.31,SE,135,0.0,0.0,78,0.00,,,0.00,Weather View 32 v70,2013-10-03 10:24:00,
2013-10-03 05:29:00,72.5,0.0,29.31,NNW,338,0.0,0.0,78,0.00,,,0.00,Weather View 32 v70,2013-10-03 10:29:00,
2013-10-03 05:39:00,72.5,0.0,29.31,SE,135,0.0,0.0,78,0.00,,,0.00,Weather View 32 v70,2013-10-03 10:39:00,
2013-10-03 05:49:00,72.3,0.0,29.31,ENE,68,0.0,0.0,78,0.00,,,0.00,Weather View 32 v70,2013-10-03 10:49:00,
2013-10-03 05:59:00,72.3,0.0,29.31,NE,45,0.0,0.0,77,0.00,,,0.00,Weather View 32 v70,2013-10-03 10:59:00,
2013-10-03 06:04:00,72.1,0.0,29.31,West,270,0.0,0.0,77,0.00,,,0.00,Weather View 32 v70,2013-10-03 11:04:00,
2013-10-03 06:14:00,72.0,0.0,29.31,SSE,158,1.0,1.0,78,0.00,,,0.00,Weather View 32 v70,2013-10-03 11:14:00,
2013-10-03 06:19:00,72.1,0.0,29.31,NE,45,1.0,1.0,78,0.00,,,0.00,Weather View 32 v70,2013-10-03 11:19:00,
2013-10-03 06:29:00,72.1,0.0,29.31,East,90,0.0,1.0,78,0.00,,,0.00,Weather View 32 v70,2013-10-03 11:29:00,
2013-10-03 06:39:00,72.1,0.0,29.31,ESE,112,0.0,1.0,78,0.00,,,0.00,Weather View 32 v70,2013-10-03 11:39:00,
2013-10-03 06:44:00,71.8,0.0,29.31,East,90,0.0,1.0,78,0.00,,,0.00,Weather View 32 v70,2013-10-03 11:44:00,
2013-10-03 06:49:00,72.0,0.0,29.31,East,90,0.0,1.0,78,0.00,,,0.00,Weather View 32 v70,2013-10-03 11:49:00,
2013-10-03 06:59:00,71.8,0.0,29.31,SE,135,0.0,1.0,78,0.00,,,0.00,Weather View 32 v70,2013-10-03 11:59:00,
2013-10-03 07:04:00,71.8,0.0,29.31,SE,135,0.0,1.0,78,0.00,,,0.00,Weather View 32 v70,2013-10-03 12:04:00,
2013-10-03 07:14:00,71.8,0.0,29.32,ENE,68,0.0,1.0,78,0.00,,,0.00,Weather View 32 v70,2013-10-03 12:14:00,
2013-10-03 07:19:00,71.8,0.0,29.32,NW,315,0.0,1.0,78,0.00,,,0.00,Weather View 32 v70,2013-10-03 12:19:00,
2013-10-03 07:24:00,71.8,0.0,29.32,SE,135,0.0,0.0,78,0.00,,,0.00,Weather View 32 v70,2013-10-03 12:24:00,
2013-10-03 07:34:00,71.8,0.0,29.31,SE,135,0.0,0.0,78,0.00,,,0.00,Weather View 32 v70,2013-10-03 12:34:00,
2013-10-03 07:39:00,71.8,0.0,29.31,SSE,158,0.0,0.0,78,0.00,,,0.00,Weather View 32 v70,2013-10-03 12:39:00,
2013-10-03 07:49:00,72.1,0.0,29.31,NE,45,0.0,0.0,78,0.00,,,0.00,Weather View 32 v70,2013-10-03 12:49:00,
2013-10-03 07:54:00,72.3,0.0,29.31,ESE,112,0.0,0.0,78,0.00,,,0.00,Weather View 32 v70,2013-10-03 12:54:00,
2013-10-03 07:59:00,72.5,0.0,29.31,ENE,68,0.0,0.0,78,0.00,,,0.00,Weather View 32 v70,2013-10-03 12:59:00,
2013-10-03 08:09:00,73.0,0.0,29.31,ENE,68,0.0,1.0,77,0.00,,,0.00,Weather View 32 v70,2013-10-03 13:09:00,
2013-10-03 08:14:00,73.2,0.0,29.31,SW,225,1.0,1.0,77,0.00,,,0.00,Weather View 32 v70,2013-10-03 13:14:00,
2013-10-03 08:19:00,73.6,0.0,29.31,East,90,1.0,1.0,76,0.00,,,0.00,Weather View 32 v70,2013-10-03 13:19:00,
2013-10-03 08:29:00,73.8,0.0,29.31,SE,135,2.0,2.0,76,0.00,,,0.00,Weather View 32 v70,2013-10-03 13:29:00,
2013-10-03 08:34:00,74.1,0.0,29.30,ESE,112,1.0,2.0,75,0.00,,,0.00,Weather View 32 v70,2013-10-03 13:34:00,
2013-10-03 08:44:00,74.8,0.0,29.30,SE,135,2.0,2.0,74,0.00,,,0.00,Weather View 32 v70,2013-10-03 13:44:00,
2013-10-03 08:49:00,74.8,0.0,29.30,NNE,22,2.0,2.0,74,0.00,,,0.00,Weather View 32 v70,2013-10-03 13:49:00,
2013-10-03 08:54:00,75.4,0.0,29.31,SE,135,1.0,2.0,73,0.00,,,0.00,Weather View 32 v70,2013-10-03 13:54:00,
2013-10-03 09:04:00,76.1,0.0,29.31,NW,315,1.0,2.0,73,0.00,,,0.00,Weather View 32 v70,2013-10-03 14:04:00,
2013-10-03 09:09:00,76.3,0.0,29.31,ENE,68,1.0,2.0,73,0.00,,,0.00,Weather View 32 v70,2013-10-03 14:09:00,
2013-10-03 09:14:00,76.6,0.0,29.31,SE,135,1.0,2.0,72,0.00,,,0.00,Weather View 32 v70,2013-10-03 14:14:00,
2013-10-03 09:24:00,77.4,0.0,29.31,ENE,68,1.0,2.0,71,0.00,,,0.00,Weather View 32 v70,2013-10-03 14:24:00,
2013-10-03 09:29:00,77.5,0.0,29.31,SE,135,1.0,2.0,71,0.00,,,0.00,Weather View 32 v70,2013-10-03 14:29:00,
2013-10-03 09:39:00,77.9,0.0,29.31,West,270,2.0,2.0,70,0.00,,,0.00,Weather View 32 v70,2013-10-03 14:39:00,
2013-10-03 09:44:00,78.1,0.0,29.31,South,180,2.0,2.0,70,0.00,,,0.00,Weather View 32 v70,2013-10-03 14:44:00,
2013-10-03 09:49:00,78.3,0.0,29.31,NE,45,1.0,2.0,70,0.00,,,0.00,Weather View 32 v70,2013-10-03 14:49:00,
2013-10-03 09:59:00,78.8,0.0,29.32,SSE,158,1.0,2.0,70,0.00,,,0.00,Weather View 32 v70,2013-10-03 14:59:00,
2013-10-03 10:04:00,79.3,0.0,29.32,SW,225,1.0,2.0,70,0.00,,,0.00,Weather View 32 v70,2013-10-03 15:04:00,
2013-10-03 10:14:00,79.5,0.0,29.31,NNE,22,1.0,2.0,69,0.00,,,0.00,Weather View 32 v70,2013-10-03 15:14:00,
2013-10-03 10:19:00,79.7,0.0,29.31,NW,315,1.0,2.0,69,0.00,,,0.00,Weather View 32 v70,2013-10-03 15:19:00,
2013-10-03 10:29:00,80.2,0.0,29.31,SE,135,1.0,2.0,68,0.00,,,0.00,Weather View 32 v70,2013-10-03 15:29:00,
2013-10-03 10:34:00,80.4,0.0,29.31,ESE,112,1.0,2.0,68,0.00,,,0.00,Weather View 32 v70,2013-10-03 15:34:00,
2013-10-03 10:39:00,80.4,0.0,29.31,SSE,158,1.0,2.0,68,0.00,,,0.00,Weather View 32 v70,2013-10-03 15:39:00,
2013-10-03 10:49:00,80.8,0.0,29.31,SE,135,1.0,1.0,68,0.00,,,0.00,Weather View 32 v70,2013-10-03 15:49:00,
2013-10-03 10:54:00,81.1,0.0,29.31,ESE,112,1.0,2.0,67,0.00,,,0.00,Weather View 32 v70,2013-10-03 15:54:00,
2013-10-03 11:04:00,81.3,0.0,29.31,SE,135,1.0,2.0,66,0.00,,,0.00,Weather View 32 v70,2013-10-03 16:04:00,
2013-10-03 11:09:00,81.3,0.0,29.31,NW,315,2.0,2.0,67,0.00,,,0.00,Weather View 32 v70,2013-10-03 16:09:00,
2013-10-03 11:19:00,81.5,0.0,29.30,ESE,112,2.0,2.0,65,0.00,,,0.00,Weather View 32 v70,2013-10-03 16:19:00,
2013-10-03 11:24:00,81.9,0.0,29.30,ESE,112,2.0,2.0,66,0.00,,,0.00,Weather View 32 v70,2013-10-03 16:24:00,
2013-10-03 11:34:00,81.9,0.0,29.30,SE,135,2.0,2.0,65,0.00,,,0.00,Weather View 32 v70,2013-10-03 16:34:00,
2013-10-03 11:39:00,81.9,0.0,29.30,SE,135,3.0,3.0,65,0.00,,,0.00,Weather View 32 v70,2013-10-03 16:39:00,
2013-10-03 11:49:00,82.2,0.0,29.30,SE,135,3.0,3.0,64,0.00,,,0.00,Weather View 32 v70,2013-10-03 16:49:00,
2013-10-03 11:54:00,82.2,0.0,29.30,SE,135,3.0,3.0,64,0.00,,,0.00,Weather View 32 v70,2013-10-03 16:54:00,
2013-10-03 12:04:00,82.4,0.0,29.30,NNE,22,1.0,3.0,64,0.00,,,0.00,Weather View 32 v70,2013-10-03 17:04:00,
2013-10-03 12:09:00,82.4,0.0,29.30,NNE,22,1.0,3.0,64,0.00,,,0.00,Weather View 32 v70,2013-10-03 17:09:00,
2013-10-03 12:19:00,82.8,0.0,29.29,SSE,158,2.0,3.0,63,0.00,,,0.00,Weather View 32 v70,2013-10-03 17:19:00,
2013-10-03 12:24:00,83.3,0.0,29.29,WSW,248,2.0,3.0,62,0.00,,,0.00,Weather View 32 v70,2013-10-03 17:24:00,
2013-10-03 12:29:00,83.1,0.0,29.29,ESE,112,2.0,3.0,61,0.00,,,0.00,Weather View 32 v70,2013-10-03 17:29:00,
2013-10-03 12:34:00,83.3,0.0,29.28,SSE,158,2.0,3.0,61,0.00,,,0.00,Weather View 32 v70,2013-10-03 17:34:00,
2013-10-03 12:44:00,83.7,0.0,29.28,SE,135,2.0,3.0,61,0.00,,,0.00,Weather View 32 v70,2013-10-03 17:44:00,
2013-10-03 12:49:00,83.5,0.0,29.28,NNW,338,2.0,3.0,61,0.00,,,0.00,Weather View 32 v70,2013-10-03 17:49:00,
2013-10-03 12:54:00,83.7,0.0,29.27,SW,225,2.0,3.0,60,0.00,,,0.00,Weather View 32 v70,2013-10-03 17:54:00,
2013-10-03 13:04:00,84.0,0.0,29.27,East,90,2.0,2.0,60,0.00,,,0.00,Weather View 32 v70,2013-10-03 18:04:00,
2013-10-03 13:09:00,84.0,0.0,29.27,SSE,158,2.0,2.0,60,0.00,,,0.00,Weather View 32 v70,2013-10-03 18:09:00,
2013-10-03 13:20:00,83.7,0.0,29.26,SSE,158,3.0,3.0,60,0.00,,,0.00,Weather View 32 v70,2013-10-03 18:20:00,
2013-10-03 13:29:00,83.5,0.0,29.26,ENE,68,2.0,3.0,61,0.00,,,0.00,Weather View 32 v70,2013-10-03 18:29:00,
2013-10-03 13:34:00,83.5,0.0,29.24,SE,135,2.0,3.0,60,0.00,,,0.00,Weather View 32 v70,2013-10-03 18:34:00,
2013-10-03 13:39:00,83.7,0.0,29.24,ENE,68,4.0,4.0,59,0.00,,,0.00,Weather View 32 v70,2013-10-03 18:39:00,
2013-10-03 13:44:00,83.8,0.0,29.24,SE,135,4.0,4.0,59,0.00,,,0.00,Weather View 32 v70,2013-10-03 18:44:00,
2013-10-03 13:54:00,83.8,0.0,29.24,SE,135,3.0,4.0,58,0.00,,,0.00,Weather View 32 v70,2013-10-03 18:54:00,
2013-10-03 13:59:00,83.8,0.0,29.24,NNE,22,3.0,4.0,58,0.00,,,0.00,Weather View 32 v70,2013-10-03 18:59:00,
2013-10-03 14:09:00,83.7,0.0,29.24,South,180,2.0,4.0,58,0.00,,,0.00,Weather View 32 v70,2013-10-03 19:09:00,
2013-10-03 14:14:00,83.8,0.0,29.24,WNW,292,3.0,4.0,58,0.00,,,0.00,Weather View 32 v70,2013-10-03 19:14:00,
2013-10-03 14:20:00,83.7,0.0,29.24,ESE,112,3.0,4.0,58,0.00,,,0.00,Weather View 32 v70,2013-10-03 19:20:00,
2013-10-03 14:29:00,83.7,0.0,29.24,NE,45,4.0,4.0,58,0.00,,,0.00,Weather View 32 v70,2013-10-03 19:29:00,
2013-10-03 14:34:00,83.7,0.0,29.24,ESE,112,3.0,4.0,59,0.00,,,0.00,Weather View 32 v70,2013-10-03 19:34:00,
2013-10-03 14:44:00,83.8,0.0,29.24,SE,135,3.0,4.0,58,0.00,,,0.00,Weather View 32 v70,2013-10-03 19:44:00,
2013-10-03 14:49:00,83.7,0.0,29.24,SE,135,4.0,4.0,58,0.00,,,0.00,Weather View 32 v70,2013-10-03 19:49:00,
2013-10-03 14:59:00,83.8,0.0,29.23,SSW,202,4.0,4.0,58,0.00,,,0.00,Weather View 32 v70,2013-10-03 19:59:00,
2013-10-03 15:04:00,84.0,0.0,29.23,SE,135,3.0,4.0,59,0.00,,,0.00,Weather View 32 v70,2013-10-03 20:04:00,
2013-10-03 15:09:00,83.8,0.0,29.23,SE,135,3.0,4.0,58,0.00,,,0.00,Weather View 32 v70,2013-10-03 20:09:00,
2013-10-03 15:19:00,83.8,0.0,29.23,WNW,292,3.0,4.0,58,0.00,,,0.00,Weather View 32 v70,2013-10-03 20:19:00,
2013-10-03 15:24:00,83.7,0.0,29.23,ESE,112,2.0,4.0,58,0.00,,,0.00,Weather View 32 v70,2013-10-03 20:24:00,
2013-10-03 15:34:00,83.7,0.0,29.23,NE,45,2.0,4.0,58,0.00,,,0.00,Weather View 32 v70,2013-10-03 20:34:00,
2013-10-03 15:39:00,83.5,0.0,29.23,SSE,158,2.0,4.0,58,0.00,,,0.00,Weather View 32 v70,2013-10-03 20:39:00,
2013-10-03 15:49:00,83.3,0.0,29.23,East,90,4.0,4.0,58,0.00,,,0.00,Weather View 32 v70,2013-10-03 20:49:00,
2013-10-03 15:54:00,83.3,0.0,29.23,SW,225,4.0,4.0,59,0.00,,,0.00,Weather View 32 v70,2013-10-03 20:54:00,
2013-10-03 16:04:00,83.1,0.0,29.23,SE,135,3.0,4.0,59,0.00,,,0.00,Weather View 32 v70,2013-10-03 21:04:00,
2013-10-03 16:09:00,83.3,0.0,29.23,NW,315,3.0,4.0,59,0.00,,,0.00,Weather View 32 v70,2013-10-03 21:09:00,
2013-10-03 16:14:00,83.1,0.0,29.23,WNW,292,3.0,4.0,59,0.00,,,0.00,Weather View 32 v70,2013-10-03 21:14:00,
2013-10-03 16:22:00,83.1,0.0,29.23,North,0,2.0,4.0,59,0.00,,,0.00,Weather View 32 v70,2013-10-03 21:22:00,
2013-10-03 16:29:00,83.3,0.0,29.23,SSE,158,2.0,4.0,58,0.00,,,0.00,Weather View 32 v70,2013-10-03 21:29:00,
2013-10-03 16:39:00,83.7,0.0,29.22,SE,135,4.0,4.0,58,0.00,,,0.00,Weather View 32 v70,2013-10-03 21:39:00,
2013-10-03 16:44:00,83.5,0.0,29.22,East,90,4.0,4.0,58,0.00,,,0.00,Weather View 32 v70,2013-10-03 21:44:00,
2013-10-03 16:54:00,83.3,0.0,29.22,ENE,68,3.0,4.0,58,0.00,,,0.00,Weather View 32 v70,2013-10-03 21:54:00,
2013-10-03 16:59:00,83.5,0.0,29.22,North,0,3.0,4.0,58,0.00,,,0.00,Weather View 32 v70,2013-10-03 21:59:00,
2013-10-03 17:04:00,83.3,0.0,29.22,SSE,158,3.0,4.0,59,0.00,,,0.00,Weather View 32 v70,2013-10-03 22:04:00,
2013-10-03 17:14:00,83.1,0.0,29.22,ENE,68,3.0,4.0,59,0.00,,,0.00,Weather View 32 v70,2013-10-03 22:14:00,
2013-10-03 17:19:00,83.1,0.0,29.22,ESE,112,3.0,4.0,60,0.00,,,0.00,Weather View 32 v70,2013-10-03 22:19:00,
2013-10-03 17:29:00,82.9,0.0,29.22,ESE,112,3.0,4.0,59,0.00,,,0.00,Weather View 32 v70,2013-10-03 22:29:00,
2013-10-03 17:34:00,82.9,0.0,29.22,ESE,112,4.0,4.0,59,0.00,,,0.00,Weather View 32 v70,2013-10-03 22:34:00,
2013-10-03 17:44:00,82.6,0.0,29.22,North,0,2.0,4.0,60,0.00,,,0.00,Weather View 32 v70,2013-10-03 22:44:00,
2013-10-03 17:49:00,82.6,0.0,29.22,SE,135,2.0,4.0,60,0.00,,,0.00,Weather View 32 v70,2013-10-03 22:49:00,
2013-10-03 17:59:00,82.2,0.0,29.22,SE,135,2.0,4.0,61,0.00,,,0.00,Weather View 32 v70,2013-10-03 22:59:00,
2013-10-03 18:04:00,82.0,0.0,29.22,WNW,292,2.0,4.0,61,0.00,,,0.00,Weather View 32 v70,2013-10-03 23:04:00,
2013-10-03 18:09:00,82.2,0.0,29.22,NNE,22,2.0,4.0,61,0.00,,,0.00,Weather View 32 v70,2013-10-03 23:09:00,
2013-10-03 18:19:00,81.9,0.0,29.23,ENE,68,2.0,4.0,62,0.00,,,0.00,Weather View 32 v70,2013-10-03 23:19:00,
2013-10-03 18:24:00,81.9,0.0,29.23,West,270,1.0,4.0,62,0.00,,,0.00,Weather View 32 v70,2013-10-03 23:24:00,
2013-10-03 18:34:00,81.5,0.0,29.24,SE,135,1.0,4.0,63,0.00,,,0.00,Weather View 32 v70,2013-10-03 23:34:00,
2013-10-03 18:39:00,81.3,0.0,29.24,East,90,1.0,3.0,63,0.00,,,0.00,Weather View 32 v70,2013-10-03 23:39:00,
2013-10-03 18:49:00,81.3,0.0,29.24,ESE,112,1.0,3.0,63,0.00,,,0.00,Weather View 32 v70,2013-10-03 23:49:00,
2013-10-03 18:54:00,81.1,0.0,29.23,WNW,292,1.0,3.0,64,0.00,,,0.00,Weather View 32 v70,2013-10-03 23:54:00,
2013-10-03 18:59:00,81.0,0.0,29.23,ESE,112,1.0,3.0,64,0.00,,,0.00,Weather View 32 v70,2013-10-03 23:59:00,
2013-10-03 19:09:00,80.8,0.0,29.23,SE,135,2.0,3.0,64,0.00,,,0.00,Weather View 32 v70,2013-10-04 00:09:00,
2013-10-03 19:19:00,80.8,0.0,29.23,SE,135,3.0,3.0,64,0.00,,,0.00,Weather View 32 v70,2013-10-04 00:19:00,
2013-10-03 19:24:00,80.4,0.0,29.23,ESE,112,2.0,3.0,65,0.00,,,0.00,Weather View 32 v70,2013-10-04 00:24:00,
2013-10-03 19:34:00,80.2,0.0,29.23,SSE,158,2.0,3.0,65,0.00,,,0.00,Weather View 32 v70,2013-10-04 00:34:00,
2013-10-03 19:39:00,80.2,0.0,29.23,SE,135,3.0,3.0,65,0.00,,,0.00,Weather View 32 v70,2013-10-04 00:39:00,
2013-10-03 19:44:00,80.1,0.0,29.23,South,180,3.0,3.0,65,0.00,,,0.00,Weather View 32 v70,2013-10-04 00:44:00,
2013-10-03 19:54:00,79.9,0.0,29.24,SE,135,3.0,4.0,66,0.00,,,0.00,Weather View 32 v70,2013-10-04 00:54:00,
2013-10-03 19:59:00,79.7,0.0,29.24,SSE,158,3.0,4.0,67,0.00,,,0.00,Weather View 32 v70,2013-10-04 00:59:00,
2013-10-03 20:09:00,79.5,0.0,29.24,SE,135,3.0,4.0,67,0.00,,,0.00,Weather View 32 v70,2013-10-04 01:09:00,
2013-10-03 20:14:00,79.2,0.0,29.25,SE,135,3.0,4.0,67,0.00,,,0.00,Weather View 32 v70,2013-10-04 01:14:00,
2013-10-03 20:19:00,79.3,0.0,29.25,ESE,112,3.0,4.0,67,0.00,,,0.00,Weather View 32 v70,2013-10-04 01:19:00,
2013-10-03 20:29:00,79.0,0.0,29.25,NNE,22,3.0,4.0,67,0.00,,,0.00,Weather View 32 v70,2013-10-04 01:29:00,
2013-10-03 20:39:00,78.6,0.0,29.25,ESE,112,3.0,4.0,68,0.00,,,0.00,Weather View 32 v70,2013-10-04 01:39:00,
2013-10-03 20:44:00,78.4,0.0,29.25,SE,135,3.0,4.0,68,0.00,,,0.00,Weather View 32 v70,2013-10-04 01:44:00,
2013-10-03 20:49:00,78.4,0.0,29.25,East,90,2.0,4.0,68,0.00,,,0.00,Weather View 32 v70,2013-10-04 01:49:00,
2013-10-03 20:59:00,78.3,0.0,29.26,SE,135,3.0,4.0,69,0.00,,,0.00,Weather View 32 v70,2013-10-04 01:59:00,
2013-10-03 21:04:00,77.9,0.0,29.26,SE,135,2.0,4.0,69,0.00,,,0.00,Weather View 32 v70,2013-10-04 02:04:00,
2013-10-03 21:14:00,77.7,0.0,29.27,SE,135,2.0,4.0,70,0.00,,,0.00,Weather View 32 v70,2013-10-04 02:14:00,
2013-10-03 21:19:00,77.7,0.0,29.27,SE,135,2.0,4.0,70,0.00,,,0.00,Weather View 32 v70,2013-10-04 02:19:00,
2013-10-03 21:29:00,77.5,0.0,29.27,SE,135,2.0,4.0,70,0.00,,,0.00,Weather View 32 v70,2013-10-04 02:29:00,
2013-10-03 21:34:00,77.5,0.0,29.27,ESE,112,2.0,4.0,70,0.00,,,0.00,Weather View 32 v70,2013-10-04 02:34:00,
2013-10-03 21:44:00,77.2,0.0,29.27,SSE,158,3.0,3.0,71,0.00,,,0.00,Weather View 32 v70,2013-10-04 02:44:00,
2013-10-03 21:49:00,77.2,0.0,29.27,SE,135,3.0,3.0,71,0.00,,,0.00,Weather View 32 v70,2013-10-04 02:49:00,
2013-10-03 21:54:00,77.2,0.0,29.27,ESE,112,3.0,3.0,71,0.00,,,0.00,Weather View 32 v70,2013-10-04 02:54:00,
2013-10-03 22:04:00,76.8,0.0,29.27,NE,45,2.0,3.0,71,0.00,,,0.00,Weather View 32 v70,2013-10-04 03:04:00,
2013-10-03 22:09:00,76.6,0.0,29.27,SE,135,3.0,3.0,71,0.00,,,0.00,Weather View 32 v70,2013-10-04 03:09:00,
2013-10-03 22:19:00,76.8,0.0,29.27,East,90,4.0,4.0,72,0.00,,,0.00,Weather View 32 v70,2013-10-04 03:19:00,
2013-10-03 22:25:00,76.6,0.0,29.27,NNE,22,4.0,4.0,72,0.00,,,0.00,Weather View 32 v70,2013-10-04 03:25:00,
2013-10-03 22:34:00,76.5,0.0,29.27,East,90,4.0,4.0,72,0.00,,,0.00,Weather View 32 v70,2013-10-04 03:34:00,
2013-10-03 22:44:00,76.5,0.0,29.27,ESE,112,2.0,4.0,72,0.00,,,0.00,Weather View 32 v70,2013-10-04 03:44:00,
2013-10-03 22:49:00,76.5,0.0,29.27,SE,135,2.0,4.0,72,0.00,,,0.00,Weather View 32 v70,2013-10-04 03:49:00,
2013-10-03 22:54:00,76.3,0.0,29.27,ESE,112,3.0,4.0,73,0.00,,,0.00,Weather View 32 v70,2013-10-04 03:54:00,
2013-10-03 22:59:00,76.5,0.0,29.27,SE,135,3.0,4.0,73,0.00,,,0.00,Weather View 32 v70,2013-10-04 03:59:00,
2013-10-03 23:34:00,75.9,0.0,29.27,NE,45,2.0,4.0,74,0.00,,,0.00,Weather View 32 v70,2013-10-04 04:34:00,
2013-10-03 23:40:00,75.9,0.0,29.27,SE,135,2.0,3.0,74,0.00,,,0.00,Weather View 32 v70,2013-10-04 04:40:00,
2013-10-03 23:44:00,75.7,0.0,29.27,SE,135,2.0,3.0,74,0.00,,,0.00,Weather View 32 v70,2013-10-04 04:44:00,
2013-10-03 23:50:00,75.7,0.0,29.27,ESE,112,2.0,3.0,74,0.00,,,0.00,Weather View 32 v70,2013-10-04 04:50:00,
2013-10-03 23:54:00,75.6,0.0,29.27,NE,45,3.0,3.0,75,0.00,,,0.00,Weather View 32 v70,2013-10-04 04:54:00,